owner,sensor,date,latitude,longitude,vertical_datum,mass_concentration_of_oxygen_in_sea_water,qcFlag 
SCCF RECON,ioos:station:SCCF:13:1,2012-04-01T00:00:00Z,26.5255,-82.0032,1.0,-9999.0,1111122 
SCCF RECON,ioos:station:SCCF:13:1,2012-04-01T01:00:00Z,26.5255,-82.0032,1.0,-9999.0,1111122 
SCCF RECON,ioos:station:SCCF:13:1,2012-04-01T02:00:00Z,26.5255,-82.0032,1.0,-9999.0,1111122 
SCCF RECON,ioos:station:SCCF:13:1,2012-04-01T03:00:00Z,26.5255,-82.0032,1.0,-9999.0,1111122 
SCCF RECON,ioos:station:SCCF:13:1,2012-04-01T04:00:00Z,26.5255,-82.0032,1.0,-9999.0,1111122 
SCCF RECON,ioos:station:SCCF:13:1,2012-04-01T05:00:00Z,26.5255,-82.0032,1.0,-9999.0,1111122 
SCCF RECON,ioos:station:SCCF:13:1,2012-04-01T06:00:00Z,26.5255,-82.0032,1.0,-9999.0,1111122 
SCCF RECON,ioos:station:SCCF:13:1,2012-04-01T07:00:00Z,26.5255,-82.0032,1.0,-9999.0,1111122 
SCCF RECON,ioos:station:SCCF:13:1,2012-04-01T08:00:00Z,26.5255,-82.0032,1.0,-9999.0,1111122 
SCCF RECON,ioos:station:SCCF:13:1,2012-04-01T09:00:00Z,26.5255,-82.0032,1.0,-9999.0,1111122 
SCCF RECON,ioos:station:SCCF:13:1,2012-04-01T10:00:00Z,26.5255,-82.0032,1.0,-9999.0,1111122 
SCCF RECON,ioos:station:SCCF:13:1,2012-04-01T11:00:00Z,26.5255,-82.0032,1.0,-9999.0,1111122 
SCCF RECON,ioos:station:SCCF:13:1,2012-04-01T12:00:00Z,26.5255,-82.0032,1.0,-9999.0,1111122 
SCCF RECON,ioos:station:SCCF:13:1,2012-04-01T13:00:00Z,26.5255,-82.0032,1.0,-9999.0,1111122 
SCCF RECON,ioos:station:SCCF:13:1,2012-04-01T14:00:00Z,26.5255,-82.0032,1.0,-9999.0,1111122 
SCCF RECON,ioos:station:SCCF:13:1,2012-04-01T15:00:00Z,26.5255,-82.0032,1.0,-9999.0,1111122 
SCCF RECON,ioos:station:SCCF:13:1,2012-04-01T16:00:00Z,26.5255,-82.0032,1.0,-9999.0,1111122 
SCCF RECON,ioos:station:SCCF:13:1,2012-04-01T17:00:00Z,26.5255,-82.0032,1.0,-9999.0,1111122 
SCCF RECON,ioos:station:SCCF:13:1,2012-04-01T18:00:00Z,26.5255,-82.0032,1.0,-9999.0,1111122 
SCCF RECON,ioos:station:SCCF:13:1,2012-04-01T19:00:00Z,26.5255,-82.0032,1.0,-9999.0,1111122 
SCCF RECON,ioos:station:SCCF:13:1,2012-04-01T20:00:00Z,26.5255,-82.0032,1.0,-9999.0,1111122 
SCCF RECON,ioos:station:SCCF:13:1,2012-04-01T21:00:00Z,26.5255,-82.0032,1.0,-9999.0,1111122 
SCCF RECON,ioos:station:SCCF:13:1,2012-04-01T22:00:00Z,26.5255,-82.0032,1.0,-9999.0,1111122 
SCCF RECON,ioos:station:SCCF:13:1,2012-04-01T23:00:00Z,26.5255,-82.0032,1.0,-9999.0,1111122 
SCCF RECON,ioos:station:SCCF:13:1,2012-04-02T00:00:00Z,26.5255,-82.0032,1.0,-9999.0,1111122 
SCCF RECON,ioos:station:SCCF:13:1,2012-04-02T01:00:00Z,26.5255,-82.0032,1.0,-9999.0,1111122 
SCCF RECON,ioos:station:SCCF:13:1,2012-04-02T02:00:00Z,26.5255,-82.0032,1.0,-9999.0,1111122 
SCCF RECON,ioos:station:SCCF:13:1,2012-04-02T03:00:00Z,26.5255,-82.0032,1.0,-9999.0,1111122 
SCCF RECON,ioos:station:SCCF:13:1,2012-04-02T04:00:00Z,26.5255,-82.0032,1.0,-9999.0,1111122 
SCCF RECON,ioos:station:SCCF:13:1,2012-04-02T05:00:00Z,26.5255,-82.0032,1.0,-9999.0,1111122 
SCCF RECON,ioos:station:SCCF:13:1,2012-04-02T06:00:00Z,26.5255,-82.0032,1.0,-9999.0,1111122 
SCCF RECON,ioos:station:SCCF:13:1,2012-04-02T07:00:00Z,26.5255,-82.0032,1.0,-9999.0,1111122 
SCCF RECON,ioos:station:SCCF:13:1,2012-04-02T08:00:00Z,26.5255,-82.0032,1.0,-9999.0,1111122 
SCCF RECON,ioos:station:SCCF:13:1,2012-04-02T09:00:00Z,26.5255,-82.0032,1.0,-9999.0,1111122 
SCCF RECON,ioos:station:SCCF:13:1,2012-04-02T10:00:00Z,26.5255,-82.0032,1.0,-9999.0,1111122 
SCCF RECON,ioos:station:SCCF:13:1,2012-04-02T11:00:00Z,26.5255,-82.0032,1.0,-9999.0,1111122 
SCCF RECON,ioos:station:SCCF:13:1,2012-04-02T12:00:00Z,26.5255,-82.0032,1.0,-9999.0,1111122 
SCCF RECON,ioos:station:SCCF:13:1,2012-04-02T13:00:00Z,26.5255,-82.0032,1.0,-9999.0,1111122 
SCCF RECON,ioos:station:SCCF:13:1,2012-04-02T14:00:00Z,26.5255,-82.0032,1.0,-9999.0,1111122 
SCCF RECON,ioos:station:SCCF:13:1,2012-04-02T15:00:00Z,26.5255,-82.0032,1.0,-9999.0,1111122 
SCCF RECON,ioos:station:SCCF:13:1,2012-04-02T16:00:00Z,26.5255,-82.0032,1.0,-9999.0,1111122 
SCCF RECON,ioos:station:SCCF:13:1,2012-04-02T17:00:00Z,26.5255,-82.0032,1.0,-9999.0,1111122 
SCCF RECON,ioos:station:SCCF:13:1,2012-04-02T19:00:00Z,26.5255,-82.0032,1.0,-9999.0,1111122 
SCCF RECON,ioos:station:SCCF:13:1,2012-04-02T20:00:00Z,26.5255,-82.0032,2.312,6.8,1111122 
SCCF RECON,ioos:station:SCCF:13:1,2012-04-02T21:00:00Z,26.5255,-82.0032,2.275,7.18,1111122 
SCCF RECON,ioos:station:SCCF:13:1,2012-04-02T22:00:00Z,26.5255,-82.0032,2.29,7.23,1111122 
SCCF RECON,ioos:station:SCCF:13:1,2012-04-02T23:00:00Z,26.5255,-82.0032,2.362,7.22,1111122 
SCCF RECON,ioos:station:SCCF:13:1,2012-04-03T00:00:00Z,26.5255,-82.0032,2.43,6.37,1111122 
SCCF RECON,ioos:station:SCCF:13:1,2012-04-03T01:00:00Z,26.5255,-82.0032,2.5,6.76,1111122 
SCCF RECON,ioos:station:SCCF:13:1,2012-04-03T02:00:00Z,26.5255,-82.0032,2.55,6.82,1111122 
SCCF RECON,ioos:station:SCCF:13:1,2012-04-03T03:00:00Z,26.5255,-82.0032,2.598,6.88,1111122 
SCCF RECON,ioos:station:SCCF:13:1,2012-04-03T04:00:00Z,26.5255,-82.0032,2.61,6.67,1111122 
SCCF RECON,ioos:station:SCCF:13:1,2012-04-03T05:00:00Z,26.5255,-82.0032,2.555,6.59,1111122 
SCCF RECON,ioos:station:SCCF:13:1,2012-04-03T06:00:00Z,26.5255,-82.0032,2.44,6.56,1111122 
SCCF RECON,ioos:station:SCCF:13:1,2012-04-03T07:00:00Z,26.5255,-82.0032,2.35,6.17,1111122 
SCCF RECON,ioos:station:SCCF:13:1,2012-04-03T08:00:00Z,26.5255,-82.0032,2.29,5.85,1111122 
SCCF RECON,ioos:station:SCCF:13:1,2012-04-03T09:00:00Z,26.5255,-82.0032,2.21,5.95,1111122 
SCCF RECON,ioos:station:SCCF:13:1,2012-04-03T10:00:00Z,26.5255,-82.0032,2.161,5.92,1111122 
SCCF RECON,ioos:station:SCCF:13:1,2012-04-03T11:00:00Z,26.5255,-82.0032,2.18,5.81,1111122 
SCCF RECON,ioos:station:SCCF:13:1,2012-04-03T12:00:00Z,26.5255,-82.0032,2.29,5.66,1111122 
SCCF RECON,ioos:station:SCCF:13:1,2012-04-03T13:00:00Z,26.5255,-82.0032,2.396,5.26,1111122 
SCCF RECON,ioos:station:SCCF:13:1,2012-04-03T14:00:00Z,26.5255,-82.0032,2.47,5.33,1111122 
SCCF RECON,ioos:station:SCCF:13:1,2012-04-03T15:00:00Z,26.5255,-82.0032,2.528,5.81,1111122 
SCCF RECON,ioos:station:SCCF:13:1,2012-04-03T16:00:00Z,26.5255,-82.0032,2.561,6.08,1111122 
SCCF RECON,ioos:station:SCCF:13:1,2012-04-03T17:00:00Z,26.5255,-82.0032,2.55,6.49,1111122 
SCCF RECON,ioos:station:SCCF:13:1,2012-04-03T18:00:00Z,26.5255,-82.0032,2.46,6.75,1111122 
SCCF RECON,ioos:station:SCCF:13:1,2012-04-03T19:00:00Z,26.5255,-82.0032,2.37,6.77,1111122 
SCCF RECON,ioos:station:SCCF:13:1,2012-04-03T20:00:00Z,26.5255,-82.0032,2.29,6.94,1111122 
SCCF RECON,ioos:station:SCCF:13:1,2012-04-03T21:00:00Z,26.5255,-82.0032,2.228,7.24,1111122 
SCCF RECON,ioos:station:SCCF:13:1,2012-04-03T22:00:00Z,26.5255,-82.0032,2.2,7.21,1111122 
SCCF RECON,ioos:station:SCCF:13:1,2012-04-03T23:00:00Z,26.5255,-82.0032,2.25,6.88,1111122 
SCCF RECON,ioos:station:SCCF:13:1,2012-04-04T00:00:00Z,26.5255,-82.0032,2.35,6.64,1111122 
SCCF RECON,ioos:station:SCCF:13:1,2012-04-04T01:00:00Z,26.5255,-82.0032,2.43,6.15,1111122 
SCCF RECON,ioos:station:SCCF:13:1,2012-04-04T02:00:00Z,26.5255,-82.0032,2.504,6.82,1111122 
SCCF RECON,ioos:station:SCCF:13:1,2012-04-04T03:00:00Z,26.5255,-82.0032,2.58,6.81,1111122 
SCCF RECON,ioos:station:SCCF:13:1,2012-04-04T04:00:00Z,26.5255,-82.0032,2.625,7.05,1111122 
SCCF RECON,ioos:station:SCCF:13:1,2012-04-04T05:00:00Z,26.5255,-82.0032,2.618,7.01,1111122 
SCCF RECON,ioos:station:SCCF:13:1,2012-04-04T06:00:00Z,26.5255,-82.0032,2.53,6.74,1111122 
SCCF RECON,ioos:station:SCCF:13:1,2012-04-04T07:00:00Z,26.5255,-82.0032,2.42,6.46,1111122 
SCCF RECON,ioos:station:SCCF:13:1,2012-04-04T08:00:00Z,26.5255,-82.0032,2.33,6.24,1111122 
SCCF RECON,ioos:station:SCCF:13:1,2012-04-04T09:00:00Z,26.5255,-82.0032,2.26,5.91,1111122 
SCCF RECON,ioos:station:SCCF:13:1,2012-04-04T10:00:00Z,26.5255,-82.0032,2.209,5.81,1111122 
SCCF RECON,ioos:station:SCCF:13:1,2012-04-04T11:00:00Z,26.5255,-82.0032,2.19,5.67,1111122 
SCCF RECON,ioos:station:SCCF:13:1,2012-04-04T12:00:00Z,26.5255,-82.0032,2.3,5.59,1111122 
SCCF RECON,ioos:station:SCCF:13:1,2012-04-04T13:00:00Z,26.5255,-82.0032,2.44,5.3,1111122 
SCCF RECON,ioos:station:SCCF:13:1,2012-04-04T14:00:00Z,26.5255,-82.0032,2.5,5.42,1111122 
SCCF RECON,ioos:station:SCCF:13:1,2012-04-04T15:00:00Z,26.5255,-82.0032,2.562,5.76,1111122 
SCCF RECON,ioos:station:SCCF:13:1,2012-04-04T16:00:00Z,26.5255,-82.0032,2.625,6.25,1111122 
SCCF RECON,ioos:station:SCCF:13:1,2012-04-04T17:00:00Z,26.5255,-82.0032,2.65,6.61,1111122 
SCCF RECON,ioos:station:SCCF:13:1,2012-04-04T18:00:00Z,26.5255,-82.0032,2.631,6.91,1111122 
SCCF RECON,ioos:station:SCCF:13:1,2012-04-04T19:00:00Z,26.5255,-82.0032,2.56,7.06,1111122 
SCCF RECON,ioos:station:SCCF:13:1,2012-04-04T20:00:00Z,26.5255,-82.0032,2.44,7.04,1111122 
SCCF RECON,ioos:station:SCCF:13:1,2012-04-04T21:00:00Z,26.5255,-82.0032,2.348,7.19,1111122 
SCCF RECON,ioos:station:SCCF:13:1,2012-04-04T22:00:00Z,26.5255,-82.0032,2.26,7.2,1111122 
SCCF RECON,ioos:station:SCCF:13:1,2012-04-04T23:00:00Z,26.5255,-82.0032,2.222,7.14,1111122 
SCCF RECON,ioos:station:SCCF:13:1,2012-04-05T00:00:00Z,26.5255,-82.0032,2.27,6.73,1111122 
SCCF RECON,ioos:station:SCCF:13:1,2012-04-05T01:00:00Z,26.5255,-82.0032,2.43,6.26,1111122 
SCCF RECON,ioos:station:SCCF:13:1,2012-04-05T02:00:00Z,26.5255,-82.0032,2.54,6.09,1111122 
SCCF RECON,ioos:station:SCCF:13:1,2012-04-05T03:00:00Z,26.5255,-82.0032,2.61,6.48,1111122 
SCCF RECON,ioos:station:SCCF:13:1,2012-04-05T04:00:00Z,26.5255,-82.0032,2.69,6.8,1111122 
SCCF RECON,ioos:station:SCCF:13:1,2012-04-05T05:00:00Z,26.5255,-82.0032,2.739,6.53,1111122 
SCCF RECON,ioos:station:SCCF:13:1,2012-04-05T06:00:00Z,26.5255,-82.0032,2.675,6.32,1111122 
SCCF RECON,ioos:station:SCCF:13:1,2012-04-05T07:00:00Z,26.5255,-82.0032,2.52,6.23,1111122 
SCCF RECON,ioos:station:SCCF:13:1,2012-04-05T08:00:00Z,26.5255,-82.0032,2.41,5.91,1111122 
SCCF RECON,ioos:station:SCCF:13:1,2012-04-05T09:00:00Z,26.5255,-82.0032,2.37,5.65,1111122 
SCCF RECON,ioos:station:SCCF:13:1,2012-04-05T10:00:00Z,26.5255,-82.0032,2.341,5.72,1111122 
SCCF RECON,ioos:station:SCCF:13:1,2012-04-05T11:00:00Z,26.5255,-82.0032,2.26,5.66,1111122 
SCCF RECON,ioos:station:SCCF:13:1,2012-04-05T12:00:00Z,26.5255,-82.0032,2.3,5.6,1111122 
SCCF RECON,ioos:station:SCCF:13:1,2012-04-05T13:00:00Z,26.5255,-82.0032,2.44,5.38,1111122 
SCCF RECON,ioos:station:SCCF:13:1,2012-04-05T14:00:00Z,26.5255,-82.0032,2.545,5.19,1111122 
SCCF RECON,ioos:station:SCCF:13:1,2012-04-05T15:00:00Z,26.5255,-82.0032,2.6,5.61,1111122 
SCCF RECON,ioos:station:SCCF:13:1,2012-04-05T16:00:00Z,26.5255,-82.0032,2.7,5.86,1111122 
SCCF RECON,ioos:station:SCCF:13:1,2012-04-05T17:00:00Z,26.5255,-82.0032,2.76,6.17,1111122 
SCCF RECON,ioos:station:SCCF:13:1,2012-04-05T18:00:00Z,26.5255,-82.0032,2.71,6.36,1111122 
SCCF RECON,ioos:station:SCCF:13:1,2012-04-05T19:00:00Z,26.5255,-82.0032,2.6,6.03,1111122 
SCCF RECON,ioos:station:SCCF:13:1,2012-04-05T20:00:00Z,26.5255,-82.0032,2.492,6.35,1111122 
SCCF RECON,ioos:station:SCCF:13:1,2012-04-05T21:00:00Z,26.5255,-82.0032,2.39,6.49,1111122 
SCCF RECON,ioos:station:SCCF:13:1,2012-04-05T22:00:00Z,26.5255,-82.0032,2.315,6.71,1111122 
SCCF RECON,ioos:station:SCCF:13:1,2012-04-05T23:00:00Z,26.5255,-82.0032,2.241,6.55,1111122 
SCCF RECON,ioos:station:SCCF:13:1,2012-04-06T00:00:00Z,26.5255,-82.0032,2.205,6.29,1111122 
SCCF RECON,ioos:station:SCCF:13:1,2012-04-06T01:00:00Z,26.5255,-82.0032,2.26,6.12,1111122 
SCCF RECON,ioos:station:SCCF:13:1,2012-04-06T02:00:00Z,26.5255,-82.0032,2.4,5.95,1111122 
SCCF RECON,ioos:station:SCCF:13:1,2012-04-06T03:00:00Z,26.5255,-82.0032,2.511,5.28,1111122 
SCCF RECON,ioos:station:SCCF:13:1,2012-04-06T04:00:00Z,26.5255,-82.0032,2.588,5.77,1111122 
SCCF RECON,ioos:station:SCCF:13:1,2012-04-06T05:00:00Z,26.5255,-82.0032,2.674,6.21,1111122 
SCCF RECON,ioos:station:SCCF:13:1,2012-04-06T06:00:00Z,26.5255,-82.0032,2.764,6.07,1111122 
SCCF RECON,ioos:station:SCCF:13:1,2012-04-06T07:00:00Z,26.5255,-82.0032,2.743,6.1,1111122 
SCCF RECON,ioos:station:SCCF:13:1,2012-04-06T08:00:00Z,26.5255,-82.0032,2.58,5.99,1111122 
SCCF RECON,ioos:station:SCCF:13:1,2012-04-06T09:00:00Z,26.5255,-82.0032,2.501,5.79,1111122 
SCCF RECON,ioos:station:SCCF:13:1,2012-04-06T10:00:00Z,26.5255,-82.0032,2.506,5.61,1111122 
SCCF RECON,ioos:station:SCCF:13:1,2012-04-06T11:00:00Z,26.5255,-82.0032,2.459,5.51,1111122 
SCCF RECON,ioos:station:SCCF:13:1,2012-04-06T12:00:00Z,26.5255,-82.0032,2.39,5.41,1111122 
SCCF RECON,ioos:station:SCCF:13:1,2012-04-06T13:00:00Z,26.5255,-82.0032,2.434,5.55,1111122 
SCCF RECON,ioos:station:SCCF:13:1,2012-04-06T14:00:00Z,26.5255,-82.0032,2.587,5.52,1111122 
SCCF RECON,ioos:station:SCCF:13:1,2012-04-06T15:00:00Z,26.5255,-82.0032,2.71,5.59,1111122 
SCCF RECON,ioos:station:SCCF:13:1,2012-04-06T16:00:00Z,26.5255,-82.0032,2.754,5.75,1111122 
SCCF RECON,ioos:station:SCCF:13:1,2012-04-06T17:00:00Z,26.5255,-82.0032,2.79,5.97,1111122 
SCCF RECON,ioos:station:SCCF:13:1,2012-04-06T18:00:00Z,26.5255,-82.0032,2.77,6.25,1111122 
SCCF RECON,ioos:station:SCCF:13:1,2012-04-06T19:00:00Z,26.5255,-82.0032,2.66,6.12,1111122 
SCCF RECON,ioos:station:SCCF:13:1,2012-04-06T20:00:00Z,26.5255,-82.0032,2.549,6.16,1111122 
SCCF RECON,ioos:station:SCCF:13:1,2012-04-06T21:00:00Z,26.5255,-82.0032,2.45,6.51,1111122 
SCCF RECON,ioos:station:SCCF:13:1,2012-04-06T22:00:00Z,26.5255,-82.0032,2.351,6.59,1111122 
SCCF RECON,ioos:station:SCCF:13:1,2012-04-06T23:00:00Z,26.5255,-82.0032,2.26,6.43,1111122 
SCCF RECON,ioos:station:SCCF:13:1,2012-04-07T00:00:00Z,26.5255,-82.0032,2.182,6.31,1111122 
SCCF RECON,ioos:station:SCCF:13:1,2012-04-07T01:00:00Z,26.5255,-82.0032,2.13,6.12,1111122 
SCCF RECON,ioos:station:SCCF:13:1,2012-04-07T02:00:00Z,26.5255,-82.0032,2.17,5.99,1111122 
SCCF RECON,ioos:station:SCCF:13:1,2012-04-07T03:00:00Z,26.5255,-82.0032,2.3,5.93,1111122 
SCCF RECON,ioos:station:SCCF:13:1,2012-04-07T04:00:00Z,26.5255,-82.0032,2.41,5.41,1111122 
SCCF RECON,ioos:station:SCCF:13:1,2012-04-07T05:00:00Z,26.5255,-82.0032,2.491,5.2,1111122 
SCCF RECON,ioos:station:SCCF:13:1,2012-04-07T06:00:00Z,26.5255,-82.0032,2.563,5.66,1111122 
SCCF RECON,ioos:station:SCCF:13:1,2012-04-07T07:00:00Z,26.5255,-82.0032,2.57,5.68,1111122 
SCCF RECON,ioos:station:SCCF:13:1,2012-04-07T08:00:00Z,26.5255,-82.0032,2.496,5.65,1111122 
SCCF RECON,ioos:station:SCCF:13:1,2012-04-07T09:00:00Z,26.5255,-82.0032,2.38,5.71,1111122 
SCCF RECON,ioos:station:SCCF:13:1,2012-04-07T10:00:00Z,26.5255,-82.0032,2.29,5.22,1111122 
SCCF RECON,ioos:station:SCCF:13:1,2012-04-07T11:00:00Z,26.5255,-82.0032,2.24,5.05,1111122 
SCCF RECON,ioos:station:SCCF:13:1,2012-04-07T12:00:00Z,26.5255,-82.0032,2.2,5.48,1111122 
SCCF RECON,ioos:station:SCCF:13:1,2012-04-07T13:00:00Z,26.5255,-82.0032,2.2,5.72,1111122 
SCCF RECON,ioos:station:SCCF:13:1,2012-04-07T14:00:00Z,26.5255,-82.0032,2.31,6.01,1111122 
SCCF RECON,ioos:station:SCCF:13:1,2012-04-07T15:00:00Z,26.5255,-82.0032,2.454,5.86,1111122 
SCCF RECON,ioos:station:SCCF:13:1,2012-04-07T16:00:00Z,26.5255,-82.0032,2.55,5.67,1111122 
SCCF RECON,ioos:station:SCCF:13:1,2012-04-07T17:00:00Z,26.5255,-82.0032,2.619,5.8,1111122 
SCCF RECON,ioos:station:SCCF:13:1,2012-04-07T18:00:00Z,26.5255,-82.0032,2.674,6.73,1111122 
SCCF RECON,ioos:station:SCCF:13:1,2012-04-07T19:00:00Z,26.5255,-82.0032,2.669,6.93,1111122 
SCCF RECON,ioos:station:SCCF:13:1,2012-04-07T20:00:00Z,26.5255,-82.0032,2.57,6.96,1111122 
SCCF RECON,ioos:station:SCCF:13:1,2012-04-07T21:00:00Z,26.5255,-82.0032,2.44,6.93,1111122 
SCCF RECON,ioos:station:SCCF:13:1,2012-04-07T22:00:00Z,26.5255,-82.0032,2.341,6.69,1111122 
SCCF RECON,ioos:station:SCCF:13:1,2012-04-07T23:00:00Z,26.5255,-82.0032,2.249,6.61,1111122 
SCCF RECON,ioos:station:SCCF:13:1,2012-04-08T00:00:00Z,26.5255,-82.0032,2.159,6.51,1111122 
SCCF RECON,ioos:station:SCCF:13:1,2012-04-08T01:00:00Z,26.5255,-82.0032,2.076,6.36,1111122 
SCCF RECON,ioos:station:SCCF:13:1,2012-04-08T02:00:00Z,26.5255,-82.0032,2.03,6.3,1111122 
SCCF RECON,ioos:station:SCCF:13:1,2012-04-08T03:00:00Z,26.5255,-82.0032,2.09,6.2,1111122 
SCCF RECON,ioos:station:SCCF:13:1,2012-04-08T04:00:00Z,26.5255,-82.0032,2.24,6.13,1111122 
SCCF RECON,ioos:station:SCCF:13:1,2012-04-08T05:00:00Z,26.5255,-82.0032,2.341,5.9,1111122 
SCCF RECON,ioos:station:SCCF:13:1,2012-04-08T06:00:00Z,26.5255,-82.0032,2.405,6.0,1111122 
SCCF RECON,ioos:station:SCCF:13:1,2012-04-08T07:00:00Z,26.5255,-82.0032,2.456,5.97,1111122 
SCCF RECON,ioos:station:SCCF:13:1,2012-04-08T08:00:00Z,26.5255,-82.0032,2.44,6.04,1111122 
SCCF RECON,ioos:station:SCCF:13:1,2012-04-08T09:00:00Z,26.5255,-82.0032,2.38,6.08,1111122 
SCCF RECON,ioos:station:SCCF:13:1,2012-04-08T10:00:00Z,26.5255,-82.0032,2.32,5.87,1111122 
SCCF RECON,ioos:station:SCCF:13:1,2012-04-08T11:00:00Z,26.5255,-82.0032,2.3,5.87,1111122 
SCCF RECON,ioos:station:SCCF:13:1,2012-04-08T12:00:00Z,26.5255,-82.0032,2.26,5.45,1111122 
SCCF RECON,ioos:station:SCCF:13:1,2012-04-08T13:00:00Z,26.5255,-82.0032,2.23,5.42,1111122 
SCCF RECON,ioos:station:SCCF:13:1,2012-04-08T14:00:00Z,26.5255,-82.0032,2.291,6.01,1111122 
SCCF RECON,ioos:station:SCCF:13:1,2012-04-08T15:00:00Z,26.5255,-82.0032,2.434,5.6,1111122 
SCCF RECON,ioos:station:SCCF:13:1,2012-04-08T16:00:00Z,26.5255,-82.0032,2.542,6.12,1111122 
SCCF RECON,ioos:station:SCCF:13:1,2012-04-08T17:00:00Z,26.5255,-82.0032,2.622,6.66,1111122 
SCCF RECON,ioos:station:SCCF:13:1,2012-04-08T18:00:00Z,26.5255,-82.0032,2.693,7.23,1111122 
SCCF RECON,ioos:station:SCCF:13:1,2012-04-08T19:00:00Z,26.5255,-82.0032,2.715,7.21,1111122 
SCCF RECON,ioos:station:SCCF:13:1,2012-04-08T20:00:00Z,26.5255,-82.0032,2.652,7.29,1111122 
SCCF RECON,ioos:station:SCCF:13:1,2012-04-08T21:00:00Z,26.5255,-82.0032,2.53,7.09,1111122 
SCCF RECON,ioos:station:SCCF:13:1,2012-04-08T22:00:00Z,26.5255,-82.0032,2.417,7.17,1111122 
SCCF RECON,ioos:station:SCCF:13:1,2012-04-08T23:00:00Z,26.5255,-82.0032,2.32,7.08,1111122 
SCCF RECON,ioos:station:SCCF:13:1,2012-04-09T00:00:00Z,26.5255,-82.0032,2.233,7.0,1111122 
SCCF RECON,ioos:station:SCCF:13:1,2012-04-09T01:00:00Z,26.5255,-82.0032,2.15,7.0,1111122 
SCCF RECON,ioos:station:SCCF:13:1,2012-04-09T02:00:00Z,26.5255,-82.0032,2.09,6.81,1111122 
SCCF RECON,ioos:station:SCCF:13:1,2012-04-09T03:00:00Z,26.5255,-82.0032,2.062,6.78,1111122 
SCCF RECON,ioos:station:SCCF:13:1,2012-04-09T04:00:00Z,26.5255,-82.0032,2.185,6.63,1111122 
SCCF RECON,ioos:station:SCCF:13:1,2012-04-09T05:00:00Z,26.5255,-82.0032,2.32,6.39,1111122 
SCCF RECON,ioos:station:SCCF:13:1,2012-04-09T06:00:00Z,26.5255,-82.0032,2.39,5.91,1111122 
SCCF RECON,ioos:station:SCCF:13:1,2012-04-09T07:00:00Z,26.5255,-82.0032,2.441,6.35,1111122 
SCCF RECON,ioos:station:SCCF:13:1,2012-04-09T08:00:00Z,26.5255,-82.0032,2.5,6.48,1111122 
SCCF RECON,ioos:station:SCCF:13:1,2012-04-09T09:00:00Z,26.5255,-82.0032,2.523,6.58,1111122 
SCCF RECON,ioos:station:SCCF:13:1,2012-04-09T10:00:00Z,26.5255,-82.0032,2.51,6.53,1111122 
SCCF RECON,ioos:station:SCCF:13:1,2012-04-09T11:00:00Z,26.5255,-82.0032,2.46,6.29,1111122 
SCCF RECON,ioos:station:SCCF:13:1,2012-04-09T12:00:00Z,26.5255,-82.0032,2.427,6.23,1111122 
SCCF RECON,ioos:station:SCCF:13:1,2012-04-09T13:00:00Z,26.5255,-82.0032,2.4,6.09,1111122 
SCCF RECON,ioos:station:SCCF:13:1,2012-04-09T14:00:00Z,26.5255,-82.0032,2.401,6.12,1111122 
SCCF RECON,ioos:station:SCCF:13:1,2012-04-09T15:00:00Z,26.5255,-82.0032,2.5,6.09,1111122 
SCCF RECON,ioos:station:SCCF:13:1,2012-04-09T16:00:00Z,26.5255,-82.0032,2.6,6.67,1111122 
SCCF RECON,ioos:station:SCCF:13:1,2012-04-09T17:00:00Z,26.5255,-82.0032,2.68,7.26,1111122 
SCCF RECON,ioos:station:SCCF:13:1,2012-04-09T18:00:00Z,26.5255,-82.0032,2.75,7.0,1111122 
SCCF RECON,ioos:station:SCCF:13:1,2012-04-09T19:00:00Z,26.5255,-82.0032,2.78,7.25,1111122 
SCCF RECON,ioos:station:SCCF:13:1,2012-04-09T20:00:00Z,26.5255,-82.0032,2.77,7.32,1111122 
SCCF RECON,ioos:station:SCCF:13:1,2012-04-09T21:00:00Z,26.5255,-82.0032,2.7,7.25,1111122 
SCCF RECON,ioos:station:SCCF:13:1,2012-04-09T22:00:00Z,26.5255,-82.0032,2.579,6.99,1111122 
SCCF RECON,ioos:station:SCCF:13:1,2012-04-09T23:00:00Z,26.5255,-82.0032,2.469,6.98,1111122 
SCCF RECON,ioos:station:SCCF:13:1,2012-04-10T00:00:00Z,26.5255,-82.0032,2.37,6.97,1111122 
SCCF RECON,ioos:station:SCCF:13:1,2012-04-10T01:00:00Z,26.5255,-82.0032,2.287,6.95,1111122 
SCCF RECON,ioos:station:SCCF:13:1,2012-04-10T02:00:00Z,26.5255,-82.0032,2.209,7.03,1111122 
SCCF RECON,ioos:station:SCCF:13:1,2012-04-10T03:00:00Z,26.5255,-82.0032,2.14,6.9,1111122 
SCCF RECON,ioos:station:SCCF:13:1,2012-04-10T04:00:00Z,26.5255,-82.0032,2.12,6.71,1111122 
SCCF RECON,ioos:station:SCCF:13:1,2012-04-10T05:00:00Z,26.5255,-82.0032,2.22,6.54,1111122 
SCCF RECON,ioos:station:SCCF:13:1,2012-04-10T06:00:00Z,26.5255,-82.0032,2.335,6.39,1111122 
SCCF RECON,ioos:station:SCCF:13:1,2012-04-10T07:00:00Z,26.5255,-82.0032,2.41,5.98,1111122 
SCCF RECON,ioos:station:SCCF:13:1,2012-04-10T08:00:00Z,26.5255,-82.0032,2.46,6.31,1111122 
SCCF RECON,ioos:station:SCCF:13:1,2012-04-10T09:00:00Z,26.5255,-82.0032,2.509,6.28,1111122 
SCCF RECON,ioos:station:SCCF:13:1,2012-04-10T10:00:00Z,26.5255,-82.0032,2.529,6.25,1111122 
SCCF RECON,ioos:station:SCCF:13:1,2012-04-10T11:00:00Z,26.5255,-82.0032,2.49,6.02,1111122 
SCCF RECON,ioos:station:SCCF:13:1,2012-04-10T12:00:00Z,26.5255,-82.0032,2.45,5.87,1111122 
SCCF RECON,ioos:station:SCCF:13:1,2012-04-10T13:00:00Z,26.5255,-82.0032,2.46,5.78,1111122 
SCCF RECON,ioos:station:SCCF:13:1,2012-04-10T14:00:00Z,26.5255,-82.0032,2.46,5.82,1111122 
SCCF RECON,ioos:station:SCCF:13:1,2012-04-10T15:00:00Z,26.5255,-82.0032,2.481,5.84,1111122 
SCCF RECON,ioos:station:SCCF:13:1,2012-04-10T16:00:00Z,26.5255,-82.0032,2.56,6.28,1111122 
SCCF RECON,ioos:station:SCCF:13:1,2012-04-10T17:00:00Z,26.5255,-82.0032,2.648,6.58,1111122 
SCCF RECON,ioos:station:SCCF:13:1,2012-04-10T18:00:00Z,26.5255,-82.0032,2.72,7.44,1111122 
SCCF RECON,ioos:station:SCCF:13:1,2012-04-10T19:00:00Z,26.5255,-82.0032,2.788,7.24,1111122 
SCCF RECON,ioos:station:SCCF:13:1,2012-04-10T20:00:00Z,26.5255,-82.0032,2.811,7.75,1111122 
SCCF RECON,ioos:station:SCCF:13:1,2012-04-10T21:00:00Z,26.5255,-82.0032,2.81,7.69,1111122 
SCCF RECON,ioos:station:SCCF:13:1,2012-04-10T22:00:00Z,26.5255,-82.0032,2.748,7.54,1111122 
SCCF RECON,ioos:station:SCCF:13:1,2012-04-10T23:00:00Z,26.5255,-82.0032,2.63,7.53,1111122 
SCCF RECON,ioos:station:SCCF:13:1,2012-04-11T00:00:00Z,26.5255,-82.0032,2.537,7.18,1111122 
SCCF RECON,ioos:station:SCCF:13:1,2012-04-11T01:00:00Z,26.5255,-82.0032,2.45,7.0,1111122 
SCCF RECON,ioos:station:SCCF:13:1,2012-04-11T02:00:00Z,26.5255,-82.0032,2.368,7.01,1111122 
SCCF RECON,ioos:station:SCCF:13:1,2012-04-11T03:00:00Z,26.5255,-82.0032,2.282,6.91,1111122 
SCCF RECON,ioos:station:SCCF:13:1,2012-04-11T04:00:00Z,26.5255,-82.0032,2.214,6.77,1111122 
SCCF RECON,ioos:station:SCCF:13:1,2012-04-11T05:00:00Z,26.5255,-82.0032,2.2,6.6,1111122 
SCCF RECON,ioos:station:SCCF:13:1,2012-04-11T06:00:00Z,26.5255,-82.0032,2.3,6.39,1111122 
SCCF RECON,ioos:station:SCCF:13:1,2012-04-11T07:00:00Z,26.5255,-82.0032,2.39,6.25,1111122 
SCCF RECON,ioos:station:SCCF:13:1,2012-04-11T08:00:00Z,26.5255,-82.0032,2.44,5.77,1111122 
SCCF RECON,ioos:station:SCCF:13:1,2012-04-11T09:00:00Z,26.5255,-82.0032,2.49,5.58,1111122 
SCCF RECON,ioos:station:SCCF:13:1,2012-04-11T10:00:00Z,26.5255,-82.0032,2.53,6.04,1111122 
SCCF RECON,ioos:station:SCCF:13:1,2012-04-11T11:00:00Z,26.5255,-82.0032,2.54,6.16,1111122 
SCCF RECON,ioos:station:SCCF:13:1,2012-04-11T12:00:00Z,26.5255,-82.0032,2.53,6.07,1111122 
SCCF RECON,ioos:station:SCCF:13:1,2012-04-11T13:00:00Z,26.5255,-82.0032,2.5,5.97,1111122 
SCCF RECON,ioos:station:SCCF:13:1,2012-04-11T14:00:00Z,26.5255,-82.0032,2.491,5.67,1111122 
SCCF RECON,ioos:station:SCCF:13:1,2012-04-11T15:00:00Z,26.5255,-82.0032,2.48,6.12,1111122 
SCCF RECON,ioos:station:SCCF:13:1,2012-04-11T16:00:00Z,26.5255,-82.0032,2.5,5.98,1111122 
SCCF RECON,ioos:station:SCCF:13:1,2012-04-11T17:00:00Z,26.5255,-82.0032,2.576,5.85,1111122 
SCCF RECON,ioos:station:SCCF:13:1,2012-04-11T18:00:00Z,26.5255,-82.0032,2.64,6.72,1111122 
SCCF RECON,ioos:station:SCCF:13:1,2012-04-11T19:00:00Z,26.5255,-82.0032,2.691,7.33,1111122 
SCCF RECON,ioos:station:SCCF:13:1,2012-04-11T20:00:00Z,26.5255,-82.0032,2.732,7.17,1111122 
SCCF RECON,ioos:station:SCCF:13:1,2012-04-11T21:00:00Z,26.5255,-82.0032,2.742,7.41,1111122 